02:15
Airports
History
Links
Donate
Help keep this website running!
PayPal
Bitcoin
This page is community maintained. The information is intended for PC simulator navigation or reference.
Always use approved charts for navigation.
YTAL
TRALEE
TRALEE (YTAL)
Hume, Australian Capital Territory, Australia (2620)
4
Lat/Lng:35° 23' 54.11" S / 149° 10' 2.03" E
-35.398363 / 149.167231
Elevation:2044'ft / 623mMSL
ID / ICAO:YTAL
Runways:1
Longest:3-21
Grass 531m / 1,742ft
Nearby Weather02:00 GMT 2017-12-11
Nearby weather at YSCB, Canberra located 6.6 nautical miles from YTAL
Altimeter: 30.09
Visibility: 6.2 statute miles
Wind: 10 knots (from 340°)
Temp: 27°c / 81°f
Humidity: 39.3%

METAR: YSCB 110200Z 34010KT 230V350 9999 FEW045 27/12 Q1019 NOSIG

(Powered by phpweather)
Runway 3 / 21
Dimensions:531.1 x 25.9m 1742' x 85'ft
Surface:Grass
Runway 3 [A]Runway 21 [B]
Heading:038°TH 218°TH
Lat:
Lng:
35° 24' 0.83"S
149° 9' 55.58"E
35° 23' 47.38"S
149° 10' 8.49"E
User Notes and Comments
35° 23' 54.11" S / 149° 10' 2.03" E
Distance To
Airport ID:
Nearby Airports
(C) Canberra 6.6 NM
YSCB ( WX ) NNE 12°
(C) Gundaroo 24.6 NM
YGDO N 11°
4 WINDERADEEN 34.6 NM
YWDR NNE 23°
4 Adaminaby Kennedy 46.3 NM
YADY SSW 206°
4 BUNYAN 50.7 NM
YBUY S 181°
4 TALBINGO 50.9 NM
YTBG WSW 255°
(U) Goulburn 51.6 NM
YGLB NE 37°
VFR Chart
Flight Planning at SkyVector.com